GFSCGP_850_dewp_165.txt.gz
Dewpoint
3 4 3 2 2 2 2 4 4 2 0 2 2 2 0 -1 -0 -0 -2 -3 -0 9 9 10 10 11 11 10 7 4 -2 -3 -4 -5 -6 -7 -7 -6 -4 -5 -6 -6 -6 -6
4 4 1 1 2 3 4 4 4 1 1 1 1 0 -2 -2 0 -0 -1 -1 -1 7 10 10 10 10 10 9 7 2 -2 -4 -4 -6 -7 -7 -6 -4 -3 -5 -6 -5 -7 -7
4 2 2 2 3 4 3 3 2 3 0 -0 0 1 -1 -1 -3 -3 -3 -3 -0 4 8 9 10 10 9 9 7 1 -2 -4 -5 -5 -6 -6 -4 -2 -3 -5 -7 -6 -7 -6
4 2 3 3 5 4 4 2 3 3 4 4 1 3 -1 -2 -2 -2 -2 -2 1 -0 7 10 10 10 9 9 8 2 -2 -4 -5 -5 -6 -4 -4 -3 -3 -6 -7 -7 -7 -6
4 3 4 5 5 4 5 2 4 4 5 5 4 5 1 -1 -1 -1 -2 -2 0 -1 3 8 9 9 8 7 7 2 -1 -4 -5 -6 -3 -2 -2 -2 -3 -6 -7 -7 -6 -6
4 3 4 4 3 3 3 4 5 5 4 5 2 4 1 1 -0 -1 -2 -2 2 -0 5 8 9 8 7 6 5 1 -2 -4 -4 -4 -2 -2 -2 -1 -2 -6 -6 -5 -5 -6
1 4 4 3 4 3 4 6 5 5 5 4 3 4 2 -1 -1 -1 -1 2 4 1 6 7 7 7 6 5 5 1 -1 -2 -4 -2 -2 -2 -1 -1 -2 -5 -5 -4 -5 -4
4 1 4 3 4 3 4 4 6 7 6 5 5 5 3 -1 -2 -2 1 5 6 5 6 7 7 6 5 6 4 1 -1 -2 -2 -2 -1 -1 -1 -0 -1 -3 -3 -5 -4 -4
3 3 0 3 2 2 1 4 3 6 3 6 3 2 -2 1 1 3 5 6 6 6 6 6 6 5 6 6 3 2 -0 -1 -1 -1 -0 -0 -0 0 0 -2 -3 -4 -4 -3
1 5 1 -0 0 1 0 1 6 5 7 7 5 3 2 2 3 4 6 6 6 5 5 5 5 5 6 5 3 2 0 -1 -0 0 0 0 0 1 0 -1 -3 -3 -2 -2
1 3 2 -1 1 2 1 2 4 5 6 7 7 6 -2 0 2 2 5 5 6 5 6 6 5 5 6 4 4 2 1 1 1 1 1 1 1 1 -1 -2 -2 -2 -2 -4
0 4 3 2 -2 -1 -0 1 2 6 5 6 7 6 -2 1 3 1 3 5 6 6 5 6 6 5 5 5 4 3 2 2 2 2 2 1 2 1 -1 -1 -1 -1 -4 -6
-0 3 4 1 -2 -2 0 -0 -1 3 4 6 7 4 -3 1 2 3 2 3 4 5 5 5 5 5 5 5 4 4 3 3 3 2 2 2 2 -0 -1 -1 -2 -5 -7 -9
-0 2 5 5 3 -0 1 1 -0 0 4 4 3 2 -2 -2 3 4 4 3 3 4 4 4 5 5 5 5 4 4 4 3 2 2 2 2 -1 -1 -2 -3 -5 -7 -10 -21
0 3 2 2 1 1 1 1 1 -0 -1 4 1 1 -1 -2 2 4 4 3 3 3 3 3 3 4 4 4 5 4 2 2 2 2 1 -1 -2 -3 -5 -5 -7 -13 -23 -18
-0 2 1 1 0 -1 -0 -1 -2 -2 -2 -2 1 -1 -2 0 2 3 3 2 2 2 2 3 3 3 2 2 1 1 1 2 1 -2 -4 -4 -5 -5 -6 -7 -17 -22 -16 -15
0 1 1 3 -0 -1 -2 -5 -3 -3 -4 -1 -1 -4 -2 1 2 2 2 3 2 1 0 -0 -1 -1 -1 0 1 2 -0 -4 -5 -5 -6 -6 -6 -6 -8 -19 -20 -16 -14 -14
-0 -0 0 2 -1 -0 -6 -7 -6 -4 -4 -4 -4 -5 -3 -0 1 2 1 1 2 2 2 2 1 1 1 1 -2 -5 -6 -7 -7 -6 -6 -6 -7 -10 -20 -19 -16 -14 -14 -15
-2 -1 0 1 0 -2 -8 -10 -7 -4 -4 -10 -8 -7 -4 -1 0 1 2 1 1 1 1 0 -1 -2 -3 -4 -6 -7 -7 -7 -6 -6 -6 -7 -13 -20 -19 -16 -15 -14 -15 -17
-3 -3 -1 -1 1 1 -6 -8 -10 -8 -4 -7 -6 -6 -5 -5 1 -1 1 1 1 1 -0 -2 -3 -4 -5 -5 -6 -7 -7 -6 -6 -7 -8 -14 -20 -19 -17 -15 -15 -16 -17 -20
-1 -1 1 1 1 -0 -4 -7 -9 -6 -5 -7 -4 -4 -5 -5 -5 -5 -1 1 -0 -2 -3 -3 -4 -5 -6 -6 -6 -7 -6 -6 -7 -9 -14 -19 -19 -17 -15 -15 -17 -19 -23 -27
-2 -0 0 -1 1 -0 -7 -11 -11 -11 -8 -5 -4 -5 -4 -5 -4 -4 -2 0 -1 -3 -4 -4 -5 -6 -6 -6 -6 -6 -6 -7 -9 -14 -19 -19 -17 -15 -16 -18 -21 -25 -27 -26
-4 -3 -2 -2 -2 -5 -7 -10 -10 -9 -8 -7 -5 -5 -5 -4 -4 -3 -2 -1 -2 -4 -5 -5 -5 -5 -5 -5 -6 -7 -7 -9 -13 -18 -19 -16 -16 -17 -19 -23 -26 -25 -25 -25
-8 -7 -5 -7 -9 -8 -10 -9 -9 -9 -8 -8 -6 -5 -5 -5 -4 -3 -2 -3 -4 -5 -5 -5 -5 -5 -5 -6 -6 -7 -9 -14 -18 -18 -16 -17 -18 -20 -25 -26 -26 -25 -24 -24
-7 -8 -7 -7 -8 -9 -9 -9 -10 -9 -8 -8 -7 -5 -5 -5 -4 -4 -4 -4 -5 -5 -5 -5 -5 -5 -6 -6 -8 -11 -15 -18 -17 -16 -17 -19 -23 -26 -26 -25 -26 -27 -23 -20
-7 -6 -5 -5 -8 -8 -8 -8 -9 -9 -8 -8 -8 -5 -4 -5 -5 -5 -4 -5 -5 -5 -4 -4 -5 -6 -7 -9 -13 -17 -17 -16 -17 -18 -20 -26 -26 -26 -28 -30 -27 -22 -21 -19

GFSCGP_850_dewp_168.txt.gz
Dewpoint
2 4 3 2 1 2 2 3 3 1 -0 1 2 2 0 -1 -1 -1 -1 -1 -2 -4 -2 9 9 9 11 11 10 11 8 4 -0 -1 -2 -3 -5 -6 -4 -4 -5 -5 -5 -5
2 3 1 1 1 2 4 4 4 2 0 1 3 2 0 -1 -2 -2 -1 -1 -1 -2 -2 8 9 10 11 11 10 10 8 3 -0 -2 -3 -5 -6 -5 -3 -4 -5 -6 -5 -6
3 1 2 2 3 4 4 4 2 2 1 1 1 2 0 -2 -3 -4 -3 -3 -4 -3 -1 8 9 9 10 10 9 9 6 1 -0 -1 -3 -4 -4 -4 -3 -4 -6 -6 -6 -6
3 2 2 3 4 4 4 2 2 3 4 5 1 3 -1 -3 -4 -3 -3 -3 -4 -4 -3 5 9 10 10 10 9 9 5 -0 -0 -2 -3 -5 -5 -4 -2 -3 -7 -6 -6 -5
2 2 3 4 4 4 4 2 4 4 5 5 4 4 0 -2 -1 -3 -3 -3 -4 -5 -3 2 7 6 10 9 9 7 4 -1 -0 -3 -3 -3 -1 -1 -1 -5 -7 -6 -6 -5
3 3 4 3 3 3 3 4 4 5 5 5 2 4 1 -1 -2 -3 -3 -3 -3 -4 -3 2 3 4 9 9 8 6 2 -1 -1 -4 -5 -1 0 -1 -1 -5 -7 -6 -5 -5
1 2 3 3 4 3 4 6 3 1 -0 2 3 5 2 -2 -3 -2 -2 -3 -3 -2 1 5 4 7 9 9 8 7 2 1 1 -4 -3 -1 0 -0 -1 -4 -5 -4 -4 -3
4 1 3 3 4 4 3 4 6 6 4 3 4 5 2 -1 -2 -1 -3 -2 -3 2 2 2 1 6 9 9 8 7 2 1 2 -1 -0 -1 -1 0 -0 -3 -4 -3 -4 -4
3 3 -0 3 3 3 3 4 2 6 4 5 3 2 1 -2 0 3 -1 -1 2 5 5 5 4 7 9 8 6 5 1 -1 -2 -2 -0 -2 -0 0 1 -1 -2 -2 -4 -3
2 5 1 -0 1 2 3 1 5 4 6 6 4 5 6 1 1 2 6 5 5 5 4 3 5 7 8 7 6 5 2 -1 -2 -1 -1 -1 1 1 1 -0 -1 -2 -2 -2
1 4 2 -0 1 1 2 3 5 6 6 7 7 5 4 2 3 3 3 6 6 5 4 3 6 6 7 5 7 4 4 1 -1 -1 -0 0 1 1 2 0 -1 -2 -1 -2
0 3 5 2 -1 -2 -0 1 3 6 4 4 6 5 -1 3 3 3 3 5 6 6 5 5 6 6 5 5 7 5 4 2 1 -0 -0 1 2 2 1 -0 -1 -1 -1 -5
0 2 4 1 -2 -2 -0 -1 1 3 4 5 6 4 -3 -0 3 3 4 5 6 6 6 6 6 5 5 6 6 5 4 2 1 1 2 2 2 2 1 0 -1 -1 -5 -8
-0 2 3 4 2 1 3 1 0 1 4 4 3 2 -0 0 1 3 4 4 5 5 6 6 6 5 5 5 7 4 3 3 1 3 3 3 3 1 1 -1 -2 -5 -8 -14
1 3 1 2 2 2 2 1 1 1 0 3 1 1 -2 -0 2 4 4 3 4 5 6 6 6 6 6 7 5 5 4 3 4 3 3 3 1 0 -1 -3 -5 -8 -17 -21
-0 3 1 1 0 -1 0 -1 -1 -2 -1 -1 -2 -1 -3 1 3 4 3 3 4 4 5 5 5 5 6 6 5 4 5 4 3 3 3 1 -0 -3 -4 -6 -8 -20 -19 -16
-0 0 1 3 -0 -1 -3 -5 -5 -4 -3 -3 -1 -4 -4 1 3 4 3 3 3 3 4 5 5 5 5 5 5 4 3 3 3 2 -0 -2 -4 -5 -6 -9 -20 -18 -15 -14
-0 -0 -0 2 -1 -1 -6 -6 -7 -5 -5 -5 -5 -5 -5 -0 2 2 2 3 3 3 4 4 5 5 5 4 2 2 2 2 -2 -3 -5 -5 -5 -6 -11 -20 -18 -15 -14 -14
-1 -1 1 1 1 -1 -6 -9 -9 -5 -4 -9 -7 -6 -4 -1 0 1 1 5 2 1 1 1 1 0 1 2 2 -0 -4 -5 -5 -5 -5 -5 -7 -13 -20 -18 -16 -15 -15 -16
-2 -3 -1 -0 1 1 -6 -8 -10 -9 -4 -8 -5 -4 -4 -5 -0 -1 2 4 1 2 2 2 2 2 1 -1 -4 -7 -6 -6 -6 -5 -6 -8 -15 -20 -18 -16 -15 -15 -17 -20
-1 -1 1 1 2 0 -4 -6 -9 -6 -6 -8 -4 -4 -4 -4 -5 -4 1 1 1 1 0 -0 -1 -3 -4 -6 -6 -7 -6 -6 -6 -7 -10 -16 -19 -18 -16 -15 -16 -18 -21 -25
-2 0 -0 -1 1 -0 -6 -11 -11 -11 -9 -7 -5 -5 -4 -4 -4 -4 0 0 0 -1 -2 -2 -3 -5 -6 -6 -7 -7 -6 -6 -7 -11 -16 -19 -18 -16 -16 -17 -20 -23 -26 -27
-5 -4 -3 -2 -2 -5 -6 -9 -10 -9 -8 -7 -5 -5 -4 -4 -3 -3 -1 -1 -2 -3 -3 -4 -5 -5 -5 -6 -6 -7 -6 -7 -10 -15 -18 -18 -16 -16 -18 -21 -25 -28 -28 -28
-8 -6 -4 -7 -8 -7 -10 -10 -10 -10 -8 -8 -6 -5 -5 -4 -3 -2 -1 -3 -4 -4 -4 -5 -5 -5 -5 -5 -6 -7 -7 -10 -14 -18 -17 -16 -17 -19 -22 -27 -27 -28 -27 -26
-6 -7 -7 -7 -8 -9 -8 -8 -8 -9 -8 -8 -7 -5 -5 -5 -3 -2 -2 -3 -4 -4 -4 -5 -5 -5 -5 -6 -6 -7 -10 -15 -18 -17 -16 -18 -19 -24 -28 -28 -29 -27 -25 -24
-7 -7 -6 -5 -8 -8 -8 -7 -8 -9 -9 -8 -8 -6 -5 -5 -4 -3 -3 -4 -5 -5 -5 -5 -5 -5 -6 -6 -8 -11 -16 -17 -16 -17 -18 -21 -27 -29 -30 -29 -27 -25 -24 -22

GFSCGP_850_dewp_171.txt.gz
Dewpoint
2 3 3 1 1 1 2 4 4 2 0 1 2 1 -0 -1 -1 -1 -1 -1 -2 -3 -4 -4 -1 9 9 10 11 10 11 11 9 3 -0 -1 -2 -4 -4 -4 -5 -5 -5 -5
1 3 1 0 1 2 3 4 4 2 0 1 2 2 0 -0 -0 -1 -2 -2 -2 -4 -6 -2 -2 7 9 10 10 10 10 9 9 1 -2 -2 -3 -4 -3 -3 -5 -5 -5 -5
2 1 1 2 3 3 2 5 4 4 2 1 2 3 1 -1 -1 -1 -2 -2 -2 -4 -8 -5 2 8 8 10 10 9 9 7 6 1 -1 -1 -3 -3 -3 -3 -4 -5 -5 -6
3 1 2 3 3 3 5 2 3 3 5 5 2 4 0 -2 -2 -2 -2 -3 -3 -3 -5 -7 -0 8 7 10 10 9 8 6 5 0 -1 -3 -6 -6 -3 -2 -4 -5 -5 -5
2 2 3 4 3 3 4 3 4 5 5 5 4 5 1 -1 -1 -2 -4 -4 -4 -3 -5 -5 -5 4 8 9 9 9 8 6 4 -0 -2 -3 -4 -3 -1 -1 -4 -4 -5 -5
3 2 3 2 2 3 3 4 4 5 5 5 2 4 2 -0 -2 -2 -3 -4 -4 -4 -4 -2 -6 2 9 9 8 9 8 6 4 -0 -2 -4 -3 -1 -1 -2 -5 -5 -4 -4
1 1 2 3 4 2 4 5 4 2 2 4 1 4 2 0 0 -1 -1 -2 -4 -4 -4 -1 -1 7 8 9 8 8 6 5 3 -1 -2 -3 -0 -0 -1 -3 -5 -4 -3 -4
3 2 1 2 3 3 3 5 6 6 4 3 1 5 3 0 -0 -0 0 2 -2 -3 -3 1 2 6 7 8 8 8 6 4 2 1 -3 -1 0 -0 0 -3 -4 -3 -3 -3
2 3 -1 2 2 3 3 5 3 6 4 5 3 1 1 1 2 1 2 3 -2 -2 2 3 3 6 7 7 8 7 6 3 1 -2 -2 0 -1 -1 -0 -2 -2 -2 -3 -3
1 5 1 -0 1 1 2 1 6 5 6 6 3 3 6 3 3 2 3 3 1 0 4 5 4 5 6 5 7 7 4 2 5 4 3 -1 -1 -0 0 -1 -1 -2 -3 -2
0 4 2 0 1 1 2 4 4 5 6 6 5 2 3 2 3 3 3 3 5 5 5 5 5 4 4 4 6 7 5 2 3 0 -2 -2 -1 1 1 0 -1 -2 -2 -1
0 2 4 2 -1 -2 -1 2 3 6 5 5 5 3 -0 2 2 3 2 5 5 5 5 5 6 6 5 6 6 6 3 1 -1 -1 -1 -0 1 1 2 1 -1 -1 -1 -3
0 2 3 -1 -2 -2 0 -1 1 2 4 4 6 3 -3 -0 1 1 3 5 5 5 6 5 4 4 6 6 6 5 3 1 0 0 1 1 1 2 2 0 -1 -1 -2 -6
-0 1 2 1 -0 1 3 2 1 1 4 2 2 2 1 -3 0 2 4 4 5 5 5 5 4 6 6 6 6 5 3 1 2 2 2 2 3 2 1 0 -0 -2 -6 -9
1 3 1 2 2 2 2 2 1 2 1 2 -1 -0 -2 -3 3 3 4 4 4 5 5 6 6 6 6 6 6 5 4 3 3 3 3 3 2 2 1 -0 -3 -6 -11 -21
-0 3 1 1 -0 0 1 -1 -1 -1 -1 -1 -1 -1 -4 -1 4 4 4 3 3 4 5 5 5 6 6 7 6 5 3 4 4 3 3 3 2 1 0 -3 -6 -13 -20 -17
-1 0 1 2 -0 -1 -2 -5 -5 -5 -5 -3 -1 -4 -6 -2 5 4 4 4 4 4 4 5 6 6 6 7 6 5 4 5 4 3 4 3 -0 -1 -3 -6 -14 -19 -16 -15
-1 -1 -0 2 -1 -2 -6 -6 -6 -6 -6 -6 -6 -6 -5 0 5 3 3 3 4 4 5 5 6 7 6 6 6 5 5 5 4 4 3 1 -2 -4 -6 -15 -18 -16 -15 -15
-2 -1 1 1 1 -1 -6 -8 -8 -8 -5 -8 -5 -4 -4 -3 1 3 3 3 3 4 5 5 6 7 7 6 6 5 4 4 4 2 -1 -4 -5 -7 -15 -18 -16 -15 -15 -16
-2 -2 -1 -0 2 2 -6 -8 -9 -9 -4 -8 -5 -4 -4 -4 1 -1 3 4 1 2 5 5 5 6 5 5 4 3 3 2 -1 -4 -5 -5 -9 -17 -18 -16 -16 -16 -17 -19
0 -1 2 1 2 0 -3 -5 -9 -7 -7 -10 -5 -4 -4 -4 -4 -3 4 5 1 2 1 2 3 3 3 3 2 -0 -3 -4 -5 -5 -7 -13 -18 -18 -17 -16 -16 -18 -20 -24
-1 -0 0 -1 1 -0 -6 -9 -8 -9 -9 -8 -6 -5 -4 -4 -4 -2 3 3 1 1 2 2 2 2 0 -2 -3 -4 -5 -5 -6 -8 -14 -18 -18 -17 -16 -17 -19 -21 -27 -30
-6 -4 -3 -2 -2 -6 -6 -6 -6 -7 -8 -8 -6 -5 -4 -4 -3 -1 -1 -1 -0 -0 0 -0 -2 -4 -4 -4 -6 -6 -6 -7 -10 -15 -18 -18 -17 -16 -18 -19 -23 -30 -31 -30
-8 -6 -4 -6 -8 -8 -9 -8 -9 -10 -9 -8 -6 -5 -5 -4 -3 -1 -2 -2 -2 -2 -2 -3 -4 -5 -5 -5 -5 -6 -7 -10 -14 -17 -18 -16 -17 -18 -20 -27 -30 -31 -30 -28
-7 -6 -6 -6 -8 -8 -8 -7 -7 -9 -9 -7 -7 -6 -5 -4 -2 -1 -2 -3 -3 -3 -3 -4 -5 -5 -5 -5 -6 -7 -9 -13 -17 -18 -16 -17 -18 -21 -29 -31 -31 -30 -28 -26
-7 -7 -6 -5 -8 -8 -8 -8 -7 -9 -9 -8 -7 -6 -5 -4 -2 -2 -3 -4 -3 -4 -4 -5 -5 -5 -5 -6 -7 -9 -12 -17 -17 -16 -17 -18 -23 -30 -31 -30 -29 -27 -27 -26

GFSCGP_850_dewp_174.txt.gz
Dewpoint
2 4 4 1 1 1 2 3 4 2 0 1 1 1 -1 -3 -2 -2 -2 -2 -2 -3 -3 -2 -2 1 8 9 8 9 10 9 7 6 5 0 -2 -4 -5 -5 -4 -4 -4 -4
3 4 -0 0 1 2 3 3 4 1 -0 1 1 1 -1 -2 -2 -2 -3 -2 -2 -3 -3 -3 -1 0 7 8 9 10 10 11 9 6 5 1 -2 -4 -4 -4 -4 -4 -4 -5
3 1 0 1 2 3 3 3 3 3 2 1 1 1 -3 -4 -4 -4 -4 -3 -2 -2 -2 -3 -2 2 7 6 9 9 10 10 8 6 4 1 -2 -5 -4 -3 -4 -4 -4 -5
3 1 2 2 3 2 4 0 2 3 5 5 2 5 -0 -3 -3 -3 -3 -3 -3 -3 -2 -3 -3 3 6 3 8 10 9 9 9 6 4 -1 -5 -6 -4 -3 -4 -4 -4 -5
3 1 2 3 2 2 4 1 3 4 5 5 3 6 -1 -4 -2 -0 -1 -1 -1 -3 -3 -3 -3 3 5 6 7 9 9 9 9 6 4 -0 -5 -5 -4 -2 -4 -4 -4 -5
3 1 2 2 1 1 1 3 2 6 5 6 1 3 -1 -3 -1 -0 -1 -1 1 1 -4 -3 -3 4 8 8 8 8 9 8 6 6 3 -1 -5 -5 -2 -2 -4 -3 -4 -4
1 1 1 2 3 1 3 4 5 5 6 4 -1 2 -0 -3 -1 -0 -0 -0 1 2 -3 -3 -2 4 8 8 8 7 8 7 6 6 2 -1 -4 -3 -1 -2 -4 -4 -4 -3
5 4 -0 1 2 1 2 3 5 6 4 4 -1 3 -2 -3 -1 -0 1 1 2 2 -2 -3 0 5 8 8 7 7 7 7 6 5 2 -2 -0 -0 -1 -3 -4 -3 -3 -3
2 4 -1 -1 -1 1 3 4 2 6 2 5 -0 -2 -3 -3 -0 1 1 2 2 3 -2 -2 3 6 6 8 7 7 7 7 4 4 2 1 0 -1 -2 -4 -4 -3 -3 -3
1 4 -1 -0 -0 0 2 1 6 4 5 3 -1 -2 1 -1 2 3 3 3 2 3 0 2 5 7 7 7 7 7 7 5 3 4 3 1 -1 0 -2 -3 -3 -2 -2 -2
1 2 0 -0 -1 -2 1 3 4 6 5 5 3 -0 -4 1 0 3 3 3 4 4 3 4 6 6 7 7 6 6 6 4 2 1 2 -0 -1 0 -0 -1 -1 -2 -1 -2
-0 2 4 0 -3 -2 -1 0 1 6 4 4 5 2 -1 -1 -1 1 3 4 5 4 4 5 6 7 6 6 6 6 6 5 2 2 2 0 -1 -0 1 0 -1 -3 -1 -1
0 1 2 -2 -3 -2 -0 -2 -0 2 5 3 5 0 -4 -5 -4 2 3 5 5 5 5 5 6 6 6 6 6 6 5 4 4 3 2 1 -0 0 1 0 -1 -0 -1 -4
-0 1 1 1 -3 -4 -1 -1 -1 1 4 1 -0 -2 -5 -4 -2 3 4 4 5 5 5 5 6 6 5 6 5 6 4 4 4 3 2 2 1 1 1 1 0 -1 -4 -7
0 2 1 1 0 -0 0 0 0 1 1 2 -3 -2 -3 -5 -0 4 4 4 5 5 5 5 6 6 6 5 5 5 4 4 4 3 2 2 2 2 1 0 -0 -4 -7 -16
1 1 1 1 -3 -0 0 -1 -2 -2 -3 -3 -3 -3 -7 -3 4 4 4 4 4 5 5 5 5 5 5 6 5 3 4 3 3 2 2 2 2 2 1 -0 -4 -7 -17 -19
-0 0 1 -0 -2 -1 -2 -4 -5 -5 -7 -6 -4 -6 -6 0 3 4 4 4 4 4 5 5 5 5 5 4 4 3 4 4 4 3 3 3 2 1 0 -4 -7 -17 -18 -16
-1 -0 1 2 -0 -2 -5 -6 -6 -6 -8 -8 -7 -6 -4 1 4 3 3 4 4 4 5 5 5 5 5 6 5 4 5 4 4 4 4 3 2 -0 -4 -9 -18 -17 -16 -15
-2 -1 -0 2 0 -3 -5 -7 -5 -8 -6 -9 -7 -5 -5 -4 2 3 4 3 3 4 4 5 5 5 6 6 5 5 5 5 4 4 3 2 0 -4 -7 -17 -17 -16 -15 -16
-2 -2 -0 0 2 -3 -6 -7 -8 -9 -4 -9 -7 -5 -4 -4 3 2 4 2 4 5 5 5 5 6 6 6 6 5 5 5 4 4 2 -1 -4 -8 -17 -17 -16 -16 -17 -18
1 0 1 1 1 -1 -5 -4 -8 -6 -6 -8 -7 -5 -4 -4 -4 -1 5 1 2 5 5 6 6 6 6 6 6 5 5 4 3 0 -4 -5 -9 -17 -17 -16 -16 -17 -19 -23
0 1 1 1 2 1 -5 -7 -6 -7 -7 -8 -7 -4 -4 -4 -4 2 4 2 2 2 5 5 6 6 5 5 5 4 4 1 -2 -4 -6 -12 -17 -17 -16 -16 -17 -20 -26 -29
-5 -4 -3 -2 -2 -5 -6 -6 -7 -7 -7 -8 -7 -6 -5 -4 -3 4 4 3 1 2 3 4 4 4 4 4 3 1 -2 -4 -5 -7 -13 -18 -17 -17 -17 -19 -21 -29 -30 -30
-8 -6 -5 -5 -7 -6 -8 -8 -7 -8 -8 -9 -7 -6 -5 -4 -3 1 3 3 1 2 2 2 2 1 -0 -1 -3 -5 -6 -6 -8 -13 -18 -18 -17 -17 -19 -23 -29 -30 -29 -27
-6 -6 -6 -6 -7 -8 -8 -8 -7 -8 -9 -8 -7 -6 -5 -4 -3 -1 -0 -0 -0 0 -0 -1 -3 -5 -5 -5 -5 -6 -6 -9 -13 -17 -18 -17 -17 -19 -25 -29 -30 -28 -27 -26
-7 -6 -6 -7 -7 -7 -7 -8 -6 -7 -8 -8 -7 -7 -5 -4 -2 -2 -2 -2 -1 -2 -3 -4 -5 -6 -6 -6 -5 -7 -9 -13 -17 -17 -17 -17 -19 -26 -30 -30 -28 -27 -26 -25

GFSCGP_850_dewp_177.txt.gz
Dewpoint
2 4 5 -0 -1 -0 1 2 3 1 -1 0 1 0 -1 -3 -4 -3 -4 -4 -4 -4 -3 -3 -3 -3 -2 -1 1 4 6 6 9 9 8 5 3 2 -1 -5 -5 -4 -4 -4
2 5 -1 -1 0 1 2 3 3 0 -2 -1 0 1 -1 -4 -4 -5 -4 -4 -4 -4 -4 -3 -3 -3 -2 -1 5 7 8 9 10 10 8 5 4 -1 -2 -5 -4 -4 -4 -4
2 0 -1 0 1 3 3 3 2 2 -0 -0 1 1 -4 -6 -5 -5 -4 -3 -2 -2 -2 -3 -3 -3 -3 -1 6 8 9 9 9 9 8 6 4 3 -2 -4 -4 -3 -3 -4
2 0 1 1 3 2 6 -0 -1 1 3 5 2 5 -1 -3 -5 -6 -4 -2 -2 -1 0 -2 -3 -3 -3 -1 6 9 9 9 10 8 7 7 4 2 -1 -5 -4 -4 -4 -5
3 0 1 3 1 0 2 -0 1 3 5 6 3 6 -1 -5 -6 -5 -3 -2 -2 -1 -1 1 -3 -3 -3 1 6 8 8 9 9 8 8 8 5 3 0 -3 -4 -4 -4 -6
2 0 1 2 1 0 -0 2 1 5 5 6 0 2 -0 -3 -4 -5 -4 -1 0 1 1 1 -2 -3 -3 3 7 7 8 8 8 7 7 5 4 3 1 -3 -4 -4 -5 -6
1 0 0 1 1 -3 1 2 6 4 7 4 -4 -1 -2 -5 -6 -4 -1 0 1 2 2 2 -2 -3 -2 6 7 7 8 7 7 6 6 4 4 2 0 -3 -4 -5 -5 -4
5 6 0 0 1 1 0 2 6 6 3 4 -1 1 -3 -7 -6 -2 -1 -0 1 3 3 2 -3 -3 1 6 7 7 7 6 6 6 6 4 2 2 -1 -3 -4 -4 -4 -4
0 2 -2 -2 -2 -0 0 4 2 5 2 3 -1 -4 -7 -6 -2 -2 -2 -0 3 3 3 1 -2 -1 7 6 7 7 6 6 6 6 5 3 5 1 -0 -2 -3 -4 -4 -4
-1 2 -2 -2 -2 -2 0 -1 4 3 6 4 -1 -2 2 -3 -0 -1 -2 2 3 4 4 -1 -2 4 6 6 6 7 6 6 6 4 2 2 4 2 0 -2 -3 -3 -3 -3
-1 -0 0 -1 -1 -3 -2 2 5 5 5 6 4 0 -5 -2 -2 -1 1 3 4 5 2 -0 3 5 6 6 7 6 6 6 5 1 2 3 4 3 -1 -2 -2 -2 -3 -3
-2 -1 2 0 -4 -5 -3 -1 -2 5 3 3 3 3 -6 -4 -4 -1 2 3 5 4 4 5 4 5 6 6 6 6 6 5 3 3 3 3 2 1 -1 -0 -2 -2 -3 -2
-1 0 2 -0 -3 -2 -2 -6 -6 -4 1 4 5 1 -6 -6 -3 -1 1 4 5 5 5 5 5 6 6 6 6 6 5 3 3 2 3 2 2 0 -0 -1 -1 -1 -2 -4
-1 -0 1 2 -1 -2 -1 -2 -3 -1 2 2 0 -2 -4 -5 -1 2 4 4 5 5 5 6 6 6 6 6 6 6 4 4 4 5 4 3 3 3 2 0 -2 -1 -3 -6
-0 1 0 -1 -2 -2 -2 -2 -3 -1 -1 1 -1 -3 -5 -5 0 4 4 4 5 5 5 5 5 5 5 5 5 4 3 3 4 4 4 4 3 3 1 -0 -1 -2 -5 -11
-0 1 -0 1 -3 -4 -1 -4 -4 -3 -3 -5 -6 -6 -8 -4 2 3 4 4 4 5 5 5 5 5 5 6 6 5 4 3 4 4 4 3 3 2 1 0 -2 -5 -13 -20
-0 1 0 1 -4 -3 -2 -4 -5 -5 -7 -7 -6 -7 -7 -2 1 4 4 5 4 5 5 5 5 5 4 4 4 5 5 4 3 3 3 3 2 1 1 -2 -6 -14 -19 -17
-1 -0 -0 2 -1 0 -5 -8 -6 -5 -7 -8 -8 -8 -6 -4 -2 4 3 3 4 4 5 5 5 4 4 4 4 3 2 2 4 4 3 3 2 1 -3 -6 -13 -19 -17 -15
-2 -2 -0 1 0 -3 -5 -7 -4 -5 -8 -8 -7 -7 -6 -4 -2 3 3 2 3 4 4 5 5 5 5 4 4 4 4 4 4 4 3 3 1 -2 -6 -12 -18 -16 -15 -15
-3 -2 -1 -1 1 -0 -6 -7 -6 -9 -5 -8 -7 -7 -5 -4 1 3 3 2 3 2 4 4 4 5 4 3 3 3 4 4 4 4 4 2 -1 -4 -10 -17 -16 -15 -16 -17
0 -0 1 0 1 -1 -5 -5 -8 -5 -5 -7 -8 -7 -4 -3 -3 -2 3 2 3 3 4 4 5 5 5 4 5 5 5 5 5 4 2 -1 -4 -10 -17 -16 -15 -15 -17 -21
-0 1 1 -0 1 2 -6 -6 -6 -6 -7 -7 -7 -6 -4 -3 -3 1 4 1 2 2 3 4 6 5 5 5 5 5 5 5 4 2 -1 -3 -8 -16 -16 -15 -16 -18 -22 -30
-2 -3 -2 -2 -1 -6 -6 -6 -6 -7 -7 -7 -7 -5 -4 -4 -3 2 4 1 1 4 5 5 6 5 5 5 5 5 4 4 2 -1 -5 -12 -17 -16 -16 -17 -19 -23 -30 -31
-8 -7 -6 -5 -7 -6 -7 -7 -7 -6 -7 -7 -5 -5 -4 -4 -3 1 3 1 2 2 4 5 5 5 4 4 4 4 3 -0 -3 -6 -13 -17 -17 -17 -17 -19 -25 -32 -31 -27
-7 -7 -7 -6 -7 -8 -7 -7 -7 -6 -7 -8 -6 -7 -5 -4 -3 -0 3 2 1 2 2 3 4 4 4 4 3 1 -2 -4 -6 -12 -17 -17 -17 -17 -19 -25 -32 -31 -27 -25
-7 -7 -6 -8 -8 -7 -7 -7 -6 -6 -6 -7 -8 -5 -5 -4 -2 -1 -0 0 1 2 1 1 1 1 0 -1 -3 -4 -5 -7 -12 -17 -17 -17 -17 -18 -22 -32 -30 -27 -25 -23

GFSCGP_850_dewp_183.txt.gz
Dewpoint
4 2 2 3 0 1 1 2 3 1 0 1 0 0 -1 -2 -2 -2 -2 -4 -4 -4 -4 -2 -2 -2 -2 -3 -3 -3 -3 -3 -0 4 5 6 8 8 8 7 8 7 5 3
2 3 3 -0 0 1 2 3 3 2 1 0 1 1 -0 -2 -2 -3 -4 -5 -4 -4 -2 -2 -1 -2 -0 -2 -3 -3 -2 -3 -1 2 3 4 4 9 8 8 8 8 5 3
2 1 0 -0 1 2 3 3 3 3 1 1 2 2 -1 -2 -3 -4 -5 -5 -4 -3 -1 -1 -1 -1 -0 0 -1 -2 -2 -2 -1 0 4 7 8 8 7 7 7 6 4 3
2 1 0 1 3 2 2 1 1 2 3 3 2 5 1 -0 -2 -4 -5 -4 -2 -0 -1 -1 -2 -2 -2 -4 -3 -2 -2 -2 -1 -1 6 6 6 7 7 7 7 6 6 1
-2 2 2 3 2 1 2 0 2 2 3 2 2 4 2 -1 -1 -3 -3 -1 -1 -2 -1 -1 -2 -2 -1 -2 2 1 -2 -2 -2 -1 6 7 7 7 7 7 6 6 3 -0
3 1 1 2 1 1 1 2 1 1 1 3 1 2 -2 -5 -4 -2 -1 -3 -1 -2 -3 -4 -2 -0 -1 1 2 2 2 -2 -2 0 5 6 6 6 7 6 5 4 3 -0
1 2 1 1 2 -0 0 1 0 0 -1 1 -1 1 -0 -4 -2 -2 -2 -2 -3 -3 -2 -1 1 2 3 3 3 3 3 -2 -0 4 4 7 7 7 6 5 4 2 1 -1
1 -1 2 1 1 1 1 1 1 3 1 1 0 3 0 -4 -3 -2 -2 -2 -2 -2 -1 0 3 3 4 3 3 4 3 1 3 4 5 7 6 7 6 4 3 1 -1 -5
1 1 -1 1 0 -1 -0 1 0 3 3 3 1 -1 -6 -5 -5 -2 -2 -2 -1 2 2 3 3 2 -1 1 3 3 3 3 5 4 6 6 6 6 5 4 2 -0 -1 -2
-1 1 -2 -2 -2 -1 -1 -1 1 1 3 3 1 -1 0 -3 -3 -0 -0 -0 1 3 3 5 3 1 3 5 3 2 3 5 5 6 6 6 6 6 5 3 2 1 -2 -3
-1 -0 -1 -2 0 0 1 2 2 2 3 1 3 0 -6 -5 -4 1 -0 1 3 3 4 5 3 3 2 2 3 5 5 4 6 6 6 5 5 4 3 2 1 -2 -3 -2
-1 1 2 0 -3 -3 -2 -1 -1 0 0 3 2 2 -6 -5 -4 -1 -0 2 3 3 5 5 3 4 4 5 6 4 5 5 6 5 5 5 4 4 3 2 0 -0 -1 -1
-1 1 1 -3 -4 -3 -3 -2 -2 -1 -1 2 2 0 -6 -6 -4 -3 2 2 2 4 5 5 5 5 6 4 5 5 6 6 6 5 5 4 3 3 3 2 1 1 -0 -1
-1 0 -1 -1 -4 -2 -0 -1 -1 -0 1 1 0 -1 -4 -5 -4 -2 3 2 3 4 5 5 5 5 5 4 5 5 5 5 5 4 3 3 3 3 2 2 1 0 0 -1
-1 2 1 0 -0 -0 0 -0 -1 -0 0 1 -1 -2 -4 -5 -4 -2 2 2 2 5 5 6 5 5 6 5 5 4 5 4 4 3 3 3 4 4 3 2 2 1 -1 -4
-0 2 1 2 0 -1 -0 -2 -3 -2 -2 -2 -2 -2 -7 -8 -5 -3 3 3 3 5 5 5 5 5 5 5 4 4 4 4 4 4 4 3 3 3 1 1 1 -1 -4 -11
1 3 1 2 -1 -0 -1 -1 -2 -3 -3 -4 -3 -6 -7 -7 -4 2 3 2 3 4 5 5 5 5 4 4 4 4 4 3 3 3 3 3 2 2 1 0 -1 -4 -10 -16
-0 2 1 2 -0 2 -5 -5 -6 -5 -5 -5 -6 -7 -7 -6 -2 3 2 2 2 4 5 5 5 5 4 4 4 3 2 3 2 2 2 2 2 1 0 -2 -6 -11 -14 -14
-2 -1 1 2 1 -1 -3 -6 -5 -5 -5 -7 -6 -7 -7 -5 -0 3 2 3 3 3 4 4 4 5 4 4 3 3 2 3 3 4 4 3 3 2 0 -3 -5 -15 -15 -12
-2 -1 0 0 3 2 -4 -7 -6 -9 -5 -7 -6 -6 -5 -4 -2 -1 1 2 2 3 3 4 4 4 4 4 3 4 3 3 4 3 3 3 3 1 -5 -9 -15 -12 -13 -16
-1 0 2 2 3 0 -3 -5 -8 -5 -6 -6 -7 -6 -5 -3 -3 -2 1 2 2 3 3 3 3 3 4 4 3 3 4 3 3 3 3 2 0 -4 -9 -14 -16 -16 -16 -19
-0 0 1 1 3 2 -5 -7 -6 -7 -7 -7 -7 -6 -5 -4 -3 1 2 3 3 3 3 3 3 3 3 4 3 4 3 3 4 3 2 2 -3 -8 -15 -16 -16 -16 -18 -24
-0 -2 -1 -1 -1 -5 -5 -6 -8 -7 -8 -7 -7 -7 -5 -4 -3 2 1 3 3 3 3 4 4 3 3 3 3 3 3 4 3 3 1 -4 -10 -16 -16 -16 -16 -19 -24 -30
-4 -4 -3 -2 -3 -4 -4 -5 -6 -7 -7 -6 -8 -7 -6 -4 -4 1 1 3 4 4 4 4 3 3 3 3 3 3 3 4 3 2 -3 -8 -13 -16 -16 -16 -17 -21 -30 -27
-3 -5 -4 -4 -6 -7 -7 -6 -7 -7 -7 -6 -7 -6 -6 -4 -3 0 2 1 4 4 4 4 4 4 3 4 4 4 4 3 2 -1 -5 -11 -15 -15 -16 -19 -22 -30 -27 -24
-2 -6 -4 -4 -7 -7 -7 -8 -7 -7 -7 -7 -8 -7 -6 -5 -3 -1 2 1 2 4 4 4 4 4 4 4 4 4 4 3 0 -4 -9 -15 -15 -16 -18 -20 -27 -28 -24 -22

GFSCGP_850_dewp_186.txt.gz
Dewpoint
3 1 0 3 1 -0 1 2 2 1 -0 1 1 0 -1 -2 -2 -2 -3 -4 -5 -5 -4 -4 -2 -2 -3 -4 -2 -3 -3 -3 -3 -3 -2 3 9 5 3 8 10 10 9 8
0 1 0 2 0 1 2 2 2 1 0 0 0 1 -1 -1 -1 -3 -3 -4 -5 -5 -4 -1 -1 -1 -2 -1 -2 -2 -2 -3 -3 -3 -2 1 6 6 7 6 8 8 8 8
2 -2 0 1 1 2 2 2 2 2 1 0 1 1 -1 -3 -3 -4 -4 -4 -4 -4 -1 -0 -1 -1 -1 -2 -1 -1 -2 -2 -2 -2 -1 2 6 8 8 8 7 7 7 7
2 0 0 1 2 2 2 1 2 3 2 2 1 4 1 -0 -1 -4 -3 -1 -1 -1 -2 -3 -4 -5 -4 -5 -5 -5 -4 -5 -3 -1 -1 -1 1 5 6 8 7 7 7 5
-6 2 2 3 2 1 1 1 2 2 1 1 2 4 1 -1 -5 -4 -2 -2 -3 -4 -4 -4 -4 -3 -3 -3 -3 -3 -1 -1 -2 -1 -0 -1 1 3 5 6 8 7 7 6
2 1 1 1 1 1 1 1 -1 -1 -2 4 1 0 -1 -3 -6 -3 -2 -3 -3 -3 -3 -3 -2 -0 -0 -0 1 2 2 3 2 2 2 -0 1 6 7 7 6 6 6 4
-0 1 1 1 2 -1 -0 -0 -2 -2 -2 0 -1 0 -2 -4 -5 -2 -2 -3 -3 -2 -2 -1 1 3 3 4 3 4 3 3 3 6 4 1 1 6 5 6 7 6 6 5
0 -5 2 1 -0 -1 1 -0 -1 -2 0 0 -1 2 -0 -3 -5 -2 -3 -2 -2 -3 -0 1 2 4 4 4 2 2 3 4 5 7 6 5 5 6 4 5 6 7 6 5
0 0 -2 1 -0 -1 0 2 -1 0 1 3 1 -1 -5 -6 -4 -3 -3 -2 -2 1 3 3 4 4 2 1 -0 1 5 6 7 7 6 4 4 5 6 6 6 6 3 1
-1 1 -2 -2 -1 -2 -1 -2 -0 1 2 2 0 -0 -0 -3 -4 -4 -1 -1 1 2 2 4 4 4 4 6 7 6 6 6 7 6 3 4 4 5 5 6 6 5 4 2
-1 -0 -1 -2 -1 -0 1 1 2 1 2 1 3 1 -4 -5 -5 -2 -2 -1 2 2 3 3 5 4 5 3 6 5 6 7 6 5 5 5 5 6 5 6 5 2 0 -2
-1 0 2 1 -3 -3 -2 0 1 1 -1 2 2 1 -6 -6 -5 -3 -2 -0 2 2 3 5 5 3 4 5 5 5 6 6 5 6 5 6 5 5 5 4 3 2 -1 -2
-2 0 1 -2 -6 -5 -2 -3 -3 -2 -1 2 3 1 -6 -6 -5 -6 -3 1 2 2 4 5 5 5 6 6 6 6 5 4 4 5 6 5 5 4 4 4 3 1 -0 -1
-1 0 -1 0 -2 -5 -1 -1 -1 -1 2 1 1 -1 -3 -4 -5 -5 -2 1 2 3 4 5 4 4 4 4 5 5 4 5 5 5 5 4 4 4 3 2 2 0 0 -1
-1 2 1 -0 -0 0 1 1 0 1 0 2 -1 -2 -4 -4 -5 -5 -1 3 3 3 4 5 5 5 5 5 5 5 5 5 5 4 4 3 3 3 2 2 2 1 0 -1
-1 4 2 3 1 1 1 -1 -1 -2 -3 -2 -2 -1 -4 -7 -7 -4 2 3 3 3 4 5 4 5 5 4 4 4 4 4 4 4 3 3 3 2 2 2 1 1 1 -0
1 4 3 3 -1 -0 1 -3 -3 -3 -3 -3 -2 -5 -7 -7 -5 -3 3 3 2 2 4 5 4 5 4 4 3 3 3 3 3 2 2 2 1 1 1 3 2 1 -0 -2
-1 -0 3 3 0 3 -3 -5 -5 -4 -5 -5 -6 -6 -7 -7 -5 -0 1 2 3 2 3 4 5 5 4 3 3 3 3 3 2 2 2 3 2 3 3 2 1 0 -4 -12
-2 -1 2 3 2 -1 -2 -5 -5 -5 -4 -7 -7 -6 -6 -6 -1 2 -1 2 2 2 3 4 4 4 4 3 3 3 3 2 2 2 2 3 3 2 2 1 -1 -7 -14 -14
-2 -2 1 2 4 3 -4 -6 -8 -9 -3 -9 -6 -6 -6 -4 -3 -3 -0 3 2 2 2 4 4 4 4 4 3 2 2 1 2 2 2 2 2 0 -2 -4 -9 -13 -13 -13
-1 0 3 3 4 2 -3 -5 -6 -3 -4 -6 -7 -6 -5 -4 -4 -3 2 3 2 2 3 3 4 4 4 3 3 2 2 2 2 2 2 1 1 -1 -6 -10 -13 -13 -11 -14
-3 -1 1 2 3 3 -5 -6 -4 -7 -7 -7 -7 -7 -5 -5 -4 1 2 3 3 2 2 2 3 3 3 4 3 2 2 3 2 2 2 2 1 -0 -8 -13 -12 -12 -16 -21
-2 -4 -1 -0 -0 -4 -5 -6 -6 -7 -7 -7 -7 -8 -6 -6 -3 2 2 4 3 3 3 3 2 2 3 3 3 3 3 2 3 2 2 1 -4 -10 -12 -13 -14 -16 -19 -25
-4 -5 -3 -3 -5 -4 -5 -6 -6 -5 -6 -6 -7 -8 -6 -6 -4 1 2 4 4 3 3 3 3 2 2 3 3 3 3 3 3 2 1 -3 -9 -13 -16 -16 -16 -18 -24 -29
-4 -4 -3 -3 -5 -5 -5 -6 -7 -7 -6 -7 -7 -7 -6 -6 -4 -1 1 4 4 4 4 3 3 3 3 3 3 3 3 3 3 2 -3 -8 -11 -16 -16 -16 -18 -22 -28 -26
-2 -2 -2 -2 -4 -5 -6 -6 -7 -7 -7 -7 -7 -8 -6 -6 -4 -2 2 2 4 4 4 4 3 3 3 3 4 4 3 3 2 1 -2 -7 -16 -16 -16 -18 -21 -25 -24 -23

GFSCGP_850_dewp_189.txt.gz
Dewpoint
3 -1 -2 0 0 -1 0 1 2 0 -1 1 1 0 -1 -2 -2 -2 -4 -4 -5 -5 -5 -4 -3 -2 -1 -2 -2 -3 -3 -3 -3 -3 -3 -3 -2 -2 -0 7 3 7 9 9
-1 -2 -2 1 0 1 1 2 1 -0 -0 0 0 1 -1 -2 -2 -3 -3 -4 -3 -4 -3 -1 -0 -1 -1 -1 -0 -1 -2 -2 -2 -2 -3 -3 -3 -1 -0 5 3 8 9 9
0 -3 0 1 1 1 1 1 1 0 1 -0 1 -1 -2 -3 -3 -3 -5 -2 -0 -1 -2 -3 -4 -4 -4 -4 -4 -4 -4 -4 -3 -2 -2 -1 -1 1 3 8 8 8 9 9
1 0 0 1 2 1 1 -0 1 2 2 1 -0 1 0 -2 -1 -4 -6 -1 -3 -3 -4 -5 -5 -6 -6 -6 -7 -6 -5 -5 -5 -5 -4 -2 -2 -1 -1 3 7 9 8 8
-8 1 2 2 1 0 -1 1 2 2 -0 0 1 3 0 -2 -4 -7 -6 -2 -3 -4 -4 -4 -5 -4 -2 -1 -2 -1 -0 -2 -3 -3 -3 -4 -2 -1 -1 3 6 7 7 7
1 1 1 0 0 1 1 0 -2 -2 -2 0 -1 -0 -2 -4 -6 -6 -3 -3 -3 -4 -5 -5 -2 2 2 2 3 3 3 3 1 1 -0 -1 -2 0 -0 3 7 7 7 7
-1 0 1 0 2 -1 -1 -1 -2 -2 -3 -0 -0 -0 -2 -5 -6 -6 -5 -5 -3 -4 -4 -2 1 2 3 3 3 3 2 3 3 2 2 3 7 4 -1 -1 7 7 7 7
-0 -6 1 1 0 -1 0 -1 -1 -3 -1 -0 -3 2 -1 -4 -5 -5 -5 -2 -4 -5 -4 0 2 3 4 4 4 5 2 2 4 4 3 5 7 6 1 -0 3 7 5 7
1 -0 -3 1 -0 -1 0 2 -2 -1 -0 3 0 -2 -5 -6 -6 -3 -4 -5 -5 -4 -1 2 3 4 4 5 4 6 3 2 4 4 4 4 6 6 3 3 5 6 6 6
-2 -0 -3 -2 -1 -1 -1 -2 0 0 2 1 0 -1 -1 -3 -4 -5 -4 -4 -4 -2 1 2 4 4 3 4 4 5 5 5 5 5 5 6 6 6 3 5 4 5 6 6
-1 -1 -1 -2 -1 -1 1 1 1 0 -1 1 2 -1 -4 -4 -5 -4 -4 -5 -3 1 2 3 4 4 4 4 5 5 5 5 5 5 6 6 6 5 5 6 6 5 6 6
-1 0 2 -0 -3 -3 -2 -0 1 2 0 2 0 1 -6 -6 -5 -5 -5 -5 -3 2 2 4 4 4 5 5 5 4 5 5 5 5 5 6 5 5 6 6 5 6 6 2
-2 -1 1 -1 -5 -5 -2 -2 -2 -2 -1 1 1 -1 -6 -7 -7 -6 -5 -5 -2 2 2 3 5 4 4 4 5 5 5 5 5 6 5 5 5 5 5 5 5 5 3 2
-1 -0 0 1 -2 -4 -3 -3 -3 -1 2 1 0 -2 -4 -5 -5 -5 -5 -6 1 3 3 4 4 5 5 4 5 5 5 5 5 5 5 5 5 5 5 5 4 2 0 -1
-0 2 0 -0 -1 -0 1 1 1 1 1 2 -0 -1 -3 -4 -5 -5 -6 -4 3 3 2 3 5 3 5 5 5 5 5 5 5 5 5 4 4 4 3 3 2 1 1 1
2 3 3 3 1 1 1 0 0 0 -0 -1 -1 -1 -4 -6 -7 -7 -5 2 3 3 3 3 4 4 5 4 4 4 5 5 5 4 3 4 4 3 3 3 2 2 1 1
2 2 3 2 0 0 1 -0 -1 -3 -4 -4 -2 -6 -7 -6 -6 -6 -1 1 2 3 2 3 4 5 4 3 3 3 3 3 3 3 3 3 3 3 2 1 1 1 1 1
0 1 1 1 1 0 -4 -5 -4 -3 -4 -5 -5 -6 -6 -7 -6 -5 1 1 2 2 2 3 4 4 3 2 3 2 2 2 2 3 2 2 2 1 1 1 1 1 1 -1
-1 -1 -0 1 1 -3 -3 -5 -5 -5 -4 -7 -6 -7 -7 -7 -6 -4 -2 2 2 2 2 3 4 4 3 3 3 3 2 2 2 0 0 0 0 0 1 1 2 1 -1 -3
-3 -2 -1 1 2 2 -3 -6 -8 -8 -4 -8 -6 -7 -7 -5 -5 -5 -4 3 3 3 3 3 4 4 3 3 3 2 1 1 1 1 1 0 0 1 2 2 1 -1 -2 -13
-0 -0 1 0 2 -0 -3 -4 -6 -1 -4 -7 -7 -7 -7 -5 -6 -5 0 3 3 3 3 3 3 3 3 3 2 2 1 1 1 2 2 2 1 1 1 1 -1 -7 -14 -13
-5 -2 -0 0 2 1 -5 -5 -3 -5 -7 -7 -7 -7 -7 -7 -5 -4 2 3 3 3 2 2 2 2 3 3 3 2 2 1 1 2 1 1 1 1 -0 -1 -9 -12 -13 -15
-4 -7 -4 -1 -2 -5 -5 -5 -5 -6 -6 -6 -6 -6 -7 -7 -6 -4 1 4 3 3 3 2 2 2 2 3 2 1 1 2 2 1 1 1 -2 -7 -10 -12 -12 -13 -14 -17
-5 -6 -5 -5 -7 -6 -7 -8 -6 -6 -6 -8 -6 -6 -7 -8 -7 -5 1 3 3 3 3 3 2 2 2 3 3 2 2 2 2 1 1 1 -2 -9 -9 -8 -10 -11 -16 -21
-3 -3 -3 -4 -5 -5 -5 -6 -6 -6 -6 -6 -6 -6 -7 -7 -6 -5 -1 2 4 4 3 3 3 2 3 3 3 3 2 2 2 1 1 -0 -2 -10 -12 -11 -14 -16 -20 -26
-5 -3 -2 -2 -6 -5 -5 -5 -6 -5 -6 -6 -6 -6 -7 -7 -6 -5 -2 2 4 4 4 3 3 3 3 3 3 3 3 2 2 0 -4 -8 -10 -13 -13 -14 -16 -20 -25 -24

GFSCGP_850_dewp_195.txt.gz
Dewpoint
1 -3 -4 -2 -2 -4 -1 -0 0 -1 -2 0 -0 -0 -2 -3 -3 -5 -5 -6 -5 -5 -3 -2 -3 -4 -5 -5 -5 -6 -6 -5 -4 -2 -3 -3 -3 -3 -3 -2 -2 -2 2 4
-4 -5 -4 -0 -0 0 1 1 0 -2 -2 0 1 -0 -3 -4 -4 -5 -5 -6 -4 -3 -3 -4 -4 -5 -5 -6 -7 -7 -7 -8 -8 -8 -5 -3 -3 -2 -3 -3 -1 1 1 5
-6 -3 0 0 0 1 0 -0 -1 -1 0 -1 -0 -3 -7 -7 -4 -4 -5 -6 -4 -2 -3 -4 -4 -5 -6 -7 -7 -7 -8 -8 -5 -3 -3 -4 -4 -3 -2 -2 -2 -1 3 7
-1 -0 0 0 0 -1 0 -1 -0 2 1 1 -1 -2 -3 -4 -5 -6 -8 -7 -5 -3 -3 -3 -4 -5 -7 -7 -6 -3 -1 -0 -0 1 3 1 -2 -4 -3 -2 -2 -1 1 7
-9 1 1 1 -1 -1 -3 0 2 1 0 1 -0 2 -4 -6 -8 -10 -9 -9 -7 -6 -6 -5 -6 -6 -6 -1 -0 0 0 -0 0 2 3 3 1 -1 -3 -4 -3 -0 2 4
-2 0 0 -2 -0 -0 0 -1 -3 -3 -1 -1 -2 -1 -4 -6 -8 -8 -8 -8 -7 -7 -6 -6 -6 -5 -2 -0 0 2 2 2 3 3 4 4 4 2 -0 -1 -4 -1 3 2
-3 -1 1 0 0 -1 -2 -4 -3 -3 -1 -2 -1 -0 -4 -7 -8 -7 -7 -7 -8 -7 -6 -6 -6 -4 0 1 2 3 3 3 4 4 5 5 4 4 3 0 -2 -3 2 3
-4 -6 1 1 -1 -2 1 -4 -2 -6 -1 -1 -2 2 -4 -5 -6 -6 -6 -7 -7 -7 -7 -6 -5 -3 2 2 3 4 4 4 4 4 5 4 5 4 3 1 4 4 -1 -1
-2 -4 -2 0 -0 -2 0 1 -3 -1 -2 2 0 -2 -6 -7 -7 -7 -8 -7 -7 -6 -6 -5 -4 2 2 3 3 4 4 4 4 4 5 3 4 4 4 4 4 5 4 1
-4 -4 -3 -1 -1 -2 -1 -2 0 1 0 2 -0 -2 -2 -5 -6 -6 -5 -6 -6 -6 -5 -4 0 2 3 4 4 3 4 4 4 4 4 4 4 4 4 5 5 4 6 4
-3 -3 -3 -2 -0 -0 1 1 1 -0 -1 3 2 -0 -5 -5 -6 -5 -5 -5 -5 -5 -5 -2 1 2 4 3 3 3 3 3 3 3 4 5 5 5 5 5 4 3 6 5
-1 -1 1 -2 -4 -4 -2 0 0 1 1 2 1 0 -7 -7 -6 -5 -5 -6 -4 -6 -4 2 2 2 3 4 4 4 4 5 5 3 4 4 5 5 5 5 4 5 6 6
-1 -0 0 -2 -2 -3 -2 -1 -1 -2 -1 2 2 -1 -7 -6 -5 -5 -5 -4 -5 -6 -1 2 3 2 2 4 3 3 3 3 4 4 4 4 5 4 5 5 5 4 5 5
-1 -1 -2 -2 -3 -4 -2 -2 -1 -1 1 -1 -1 -2 -3 -4 -4 -5 -5 -4 -6 -0 1 2 3 2 3 4 4 3 3 3 4 5 5 4 2 5 5 5 4 4 5 5
-1 1 -0 -0 -1 -0 -0 -0 -1 -1 -1 0 -1 0 -1 -3 -4 -4 -6 -6 -2 1 2 3 3 3 4 4 4 3 2 2 3 4 5 4 4 3 4 4 4 4 4 4
1 2 1 2 0 1 2 1 1 1 0 1 0 0 -3 -4 -7 -7 -6 -5 -1 2 3 2 2 3 4 4 3 3 2 4 4 5 5 5 4 4 4 4 4 3 3 2
0 1 1 2 -0 -1 -1 -2 -2 -1 -1 -1 0 -2 -6 -6 -6 -6 -6 -4 -0 3 2 2 3 3 3 3 3 2 2 3 4 4 4 4 3 4 3 3 3 2 2 2
-2 1 0 1 -1 1 -6 -6 -5 -3 -3 -3 -3 -5 -6 -7 -7 -6 -5 -5 1 3 2 2 3 3 3 2 2 1 1 3 3 4 3 3 3 3 2 2 2 1 1 1
-1 -1 -1 -0 -0 -3 -6 -8 -5 -4 -4 -6 -5 -7 -7 -7 -6 -7 -5 -6 1 3 2 2 3 3 2 2 1 1 1 1 2 2 3 2 2 2 2 1 1 1 1 1
-1 -2 -2 -1 1 -0 -5 -6 -7 -7 -4 -7 -7 -6 -6 -6 -4 -6 -6 -6 1 2 3 2 2 2 2 2 2 1 1 1 1 1 1 1 1 2 1 1 1 1 0 0
-1 0 -0 -1 -1 -2 -6 -7 -6 -1 -4 -7 -6 -6 -6 -5 -6 -5 -6 -6 2 2 3 2 2 2 2 2 1 1 0 0 -0 0 0 0 -0 0 1 0 0 0 0 -2
-2 -1 -1 -0 1 -0 -7 -4 -3 -4 -6 -7 -8 -6 -6 -6 -5 -6 -6 -4 3 2 2 2 2 2 2 1 1 1 1 -0 -0 -0 -0 -0 -0 -0 -0 -0 -0 -4 -7 -9
-7 -9 -6 -3 -4 -8 -5 -7 -10 -10 -10 -9 -7 -7 -7 -7 -7 -5 -6 -5 3 3 3 2 2 2 2 1 1 1 0 0 -0 0 -0 -0 -0 -0 -0 -0 -1 -5 -12 -13
-5 -7 -5 -6 -8 -9 -8 -10 -12 -10 -7 -8 -7 -7 -8 -9 -6 -5 -6 -5 2 3 3 2 2 2 2 1 1 1 1 1 1 0 0 -0 -0 -0 -1 -3 -9 -12 -14 -16
-13 -13 -12 -11 -13 -11 -11 -12 -11 -9 -6 -7 -6 -8 -9 -9 -5 -5 -6 -5 0 3 2 2 2 2 2 1 1 1 1 1 1 1 0 -0 -2 -5 -8 -11 -12 -13 -14 -6
-10 -11 -10 -11 -14 -12 -13 -14 -12 -9 -9 -9 -8 -9 -8 -6 -4 -6 -7 -5 -1 4 2 2 2 3 2 2 2 1 0 0 0 0 -1 -3 -3 -5 -10 -8 -3 -1 -4 -8

GFSCGP_850_dewp_198.txt.gz
Dewpoint
0 -1 1 -4 -4 -5 -3 -4 -3 -4 -3 -1 -2 -2 -5 -7 -5 -5 -7 -6 -5 -3 -4 -3 -3 -4 -4 -5 -5 -6 -7 -8 -7 -7 -7 -8 -5 -3 -3 -3 -3 -3 -3 0
-3 -2 -4 -1 -1 -1 -2 -2 -3 -4 -3 -1 -2 -3 -6 -7 -6 -6 -6 -6 -6 -2 -2 -3 -4 -4 -4 -5 -6 -7 -8 -9 -8 -8 -7 -6 -6 0 -3 -3 -3 -2 -1 0
-4 -3 -0 -1 0 -1 -1 -3 -4 -2 -0 -1 -2 -7 -7 -7 -6 -5 -5 -4 -5 -2 -2 -2 -3 -4 -5 -7 -7 -8 -7 -4 -2 -1 -1 -1 -0 -1 3 -3 -3 -3 -0 2
-3 -0 1 1 -0 -1 0 -2 -1 1 2 -0 -2 -5 -9 -6 -8 -8 -8 -6 -6 -3 -2 -3 -5 -4 -4 -6 -6 -5 -2 -2 -1 -0 -0 1 4 5 5 5 -2 -2 -2 2
-1 1 1 0 -2 -2 -2 0 1 1 2 3 0 3 -9 -7 -9 -9 -8 -7 -7 -6 -5 -5 -4 -4 -4 -6 -5 -1 -1 -0 1 2 3 3 4 4 5 5 6 0 -1 -1
-1 1 -0 -2 -0 -1 -1 -1 -3 1 3 5 -2 -2 -10 -10 -10 -9 -8 -8 -7 -6 -6 -6 -4 -5 -4 -2 -1 1 2 2 3 3 3 4 4 4 5 5 5 6 -1 1
-1 0 1 0 1 0 -1 -3 5 4 6 -1 -1 -1 -9 -10 -9 -8 -7 -7 -7 -6 -6 -5 -5 -4 -3 -0 1 2 3 5 4 4 4 4 4 4 4 5 5 6 1 2
0 0 2 0 -1 -3 -1 -3 1 -2 -2 -6 -3 -2 -7 -6 -7 -7 -6 -6 -6 -5 -5 -5 -5 -3 0 2 3 4 5 5 4 3 4 4 5 5 4 5 5 6 4 -2
-4 -3 -1 1 -1 -2 -0 1 -3 2 -1 2 -3 -4 -6 -7 -6 -8 -7 -6 -5 -5 -5 -5 -4 1 2 3 4 4 4 4 3 3 3 3 4 5 4 4 5 5 5 2
-5 -2 -3 -0 -1 -1 -2 -3 2 1 2 1 -3 -3 -4 -7 -6 -6 -6 -6 -5 -5 -4 -5 -3 2 3 3 4 4 4 4 4 3 3 3 4 5 4 4 5 5 4 3
-4 -4 -2 -1 1 -1 -0 -0 0 0 1 4 1 -5 -6 -6 -6 -5 -6 -6 -5 -5 -5 -2 0 3 3 3 4 5 4 4 4 4 3 3 3 5 4 4 4 4 4 4
-1 -2 -1 -3 -3 -4 -3 -2 -3 1 2 3 2 -1 -8 -6 -7 -6 -6 -6 -5 -5 -3 1 2 3 3 3 3 4 4 4 4 4 4 3 3 4 5 4 4 4 5 5
-2 -0 1 -1 -3 -3 -1 -1 -2 -2 -1 1 2 -3 -7 -7 -7 -6 -6 -5 -6 -5 -0 2 2 3 3 3 3 4 4 3 3 4 5 4 2 5 5 5 4 4 5 4
-1 -1 -2 -3 -3 -3 -1 -1 -1 -1 1 -1 -1 -2 -5 -6 -5 -5 -6 -5 -6 -5 1 3 3 2 3 3 4 3 3 2 2 4 5 3 2 4 4 5 5 5 4 5
-1 1 0 -1 -1 -1 -1 -1 -2 -1 -1 0 -1 -2 -4 -4 -4 -6 -6 -5 -5 -4 2 3 3 3 3 3 3 3 2 2 3 4 4 4 3 3 4 3 3 4 4 5
0 3 2 2 -0 -0 0 -1 -1 -1 -1 -2 -2 -1 -5 -6 -8 -8 -7 -5 -4 -4 2 3 2 3 3 3 3 2 2 3 4 4 4 4 3 3 3 3 3 4 5 4
-2 1 1 0 -1 -1 -0 -2 -2 -3 -4 -3 -1 -4 -5 -8 -7 -7 -6 -5 -4 -3 3 2 2 3 3 3 2 2 2 2 4 4 4 4 4 3 3 3 3 2 3 3
-3 -1 -0 2 -2 1 -6 -8 -6 -4 -5 -5 -4 -4 -5 -7 -6 -6 -6 -4 -3 -3 3 2 2 2 2 2 2 1 1 2 3 3 3 3 3 3 3 3 3 2 1 0
-4 -3 -1 -0 -2 -5 -6 -9 -7 -6 -6 -7 -6 -6 -7 -6 -6 -7 -5 -4 -4 -0 3 2 2 2 2 2 1 1 1 1 2 2 3 3 2 3 2 2 2 2 1 1
-4 -4 -2 -3 -1 -3 -8 -6 -7 -6 -3 -6 -8 -10 -7 -6 -7 -8 -6 -5 -5 2 2 2 2 2 2 2 1 1 1 1 1 1 1 1 1 2 2 1 1 1 1 1
-1 -1 -1 -3 -2 -6 -9 -9 -7 -4 -5 -6 -9 -8 -6 -7 -7 -7 -6 -5 -5 2 2 2 2 2 2 1 1 1 0 0 -0 -0 0 1 1 1 1 1 0 0 0 -0
-5 -2 -2 -2 -1 -1 -9 -6 -5 -6 -9 -9 -9 -7 -5 -6 -6 -6 -7 -5 -5 2 2 2 2 2 2 1 1 1 0 -0 -1 -1 -1 -0 -0 0 -0 0 -0 -0 -0 -1
-8 -10 -10 -6 -8 -8 -5 -8 -9 -9 -9 -9 -10 -9 -5 -5 -6 -8 -8 -5 -6 1 2 2 2 2 1 1 1 1 -0 -1 -1 -0 -0 -1 -0 -0 -0 -0 -0 -1 -2 -7
-8 -7 -6 -9 -13 -13 -12 -12 -12 -12 -11 -12 -9 -6 -8 -7 -8 -8 -5 -4 -6 -1 3 2 2 2 1 1 1 1 0 -1 -1 -0 -0 -0 -0 -0 -1 -5 -7 -9 -10 -15
-15 -15 -14 -14 -15 -16 -16 -14 -13 -13 -12 -12 -13 -11 -9 -9 -8 -7 -4 -5 -6 -2 3 2 2 2 2 1 1 1 1 0 0 -0 -0 -1 -1 -1 -2 -5 -9 -12 -8 -12
-13 -14 -14 -14 -18 -19 -19 -19 -19 -17 -15 -13 -11 -9 -12 -8 -6 -5 -4 -6 -6 -4 3 2 2 3 2 2 1 1 0 0 0 -0 -1 -1 -2 -5 -10 -11 -13 -13 -10 -3

GFSCGP_850_dewp_201.txt.gz
Dewpoint
-1 -0 2 -5 -6 -7 -8 -9 -9 -8 -4 -3 -6 -6 -8 -10 -7 -7 -8 -8 -7 -4 -2 0 -0 -1 -2 -2 -3 -3 -7 -8 -8 -8 -8 -7 -2 0 3 -5 -3 -2 1 -1
-3 -3 -5 -3 -4 -5 -6 -5 -5 -6 -4 -3 -5 -5 -8 -8 -8 -8 -8 -8 -7 -4 -3 -1 -0 -1 -1 -1 -1 -5 -7 -7 -8 -7 -3 -2 -2 -0 1 4 -0 -3 -2 -1
-4 -2 -2 -3 -2 -3 -4 -5 -8 -4 -3 -3 -3 -8 -7 -7 -7 -6 -6 -6 -6 -5 -3 -3 -2 -2 -2 -2 -3 -3 -5 -5 -5 -2 -0 1 1 1 2 3 7 0 -3 -3
-5 -2 -1 -2 -1 -3 1 -4 -3 -1 -0 1 -4 -5 -11 -8 -9 -9 -8 -7 -7 -6 -6 -6 -5 -5 -4 -3 -4 -4 -4 -5 -4 -0 2 4 4 4 4 5 5 6 5 3
0 0 1 -0 -2 -4 -1 -2 -0 -0 2 2 -1 2 -9 -9 -9 -8 -8 -7 -8 -7 -7 -6 -6 -5 -4 -4 -4 -3 1 3 2 2 3 4 4 4 4 4 4 5 6 8
-1 0 -2 -3 -2 -2 -1 -2 -2 2 4 7 -2 -2 -10 -9 -12 -9 -9 -9 -8 -7 -6 -6 -5 -5 -4 -4 -2 -0 3 4 5 5 5 5 4 4 4 4 5 4 6 6
-1 -1 -1 -1 -0 -0 0 -3 6 7 7 1 -4 -3 -11 -10 -10 -9 -8 -8 -7 -6 -5 -5 -4 -4 -3 1 2 3 3 4 5 5 5 5 4 4 5 4 4 4 5 6
2 2 0 -1 -1 -3 -2 -3 5 1 -1 -4 -4 -3 -6 -8 -8 -7 -8 -7 -6 -6 -5 -5 -4 -4 -2 3 3 3 3 4 5 5 3 3 3 4 4 4 4 5 4 6
-3 -2 -0 -0 -1 -2 -1 -1 -3 1 -3 -1 -5 -5 -7 -8 -7 -8 -7 -6 -6 -5 -5 -5 -4 -1 1 3 3 3 4 4 5 5 5 5 4 3 3 5 5 4 4 5
-5 -2 -2 0 -1 -2 -1 -4 0 0 3 1 -6 -5 -4 -6 -7 -6 -7 -6 -6 -5 -5 -5 -1 2 2 2 3 3 3 4 4 4 4 5 5 3 4 5 4 4 5 5
-4 -5 -1 -1 -0 -2 -1 -2 -2 -1 1 4 -1 -6 -7 -7 -6 -6 -7 -6 -6 -5 -6 -4 1 2 2 2 3 3 3 4 4 4 3 4 3 4 4 4 4 4 5 6
-1 -1 -2 -3 -4 -4 -3 -4 -4 -0 2 1 3 -1 -9 -7 -7 -7 -6 -6 -5 -5 -5 -3 2 3 3 3 3 3 3 4 3 2 2 3 4 3 3 4 4 4 5 5
-2 -2 -0 -2 -3 -3 -2 -4 -3 -5 -3 1 3 -3 -8 -8 -7 -7 -6 -6 -5 -5 -5 -2 3 3 3 2 3 3 3 2 1 1 2 3 4 3 4 4 5 4 5 5
-1 -2 -3 -3 -2 -3 -2 -2 -2 -2 1 -1 -2 -4 -7 -7 -6 -6 -6 -7 -6 -5 -5 -2 3 3 3 3 3 3 3 2 2 3 3 4 4 3 4 4 4 4 4 4
-1 1 -1 -2 -2 -2 -1 -2 -3 -1 -1 0 -2 -3 -5 -6 -6 -7 -8 -7 -6 -5 -5 -2 3 3 2 2 3 3 2 2 3 3 4 4 3 3 3 3 4 4 4 4
0 1 1 2 -0 -1 0 -1 -2 -2 -2 -3 -3 -3 -6 -6 -8 -8 -7 -6 -5 -5 -4 -1 3 2 2 2 2 2 1 2 3 4 4 4 3 3 3 2 2 3 3 4
-1 1 2 1 -2 -1 -0 -3 -3 -3 -4 -4 -2 -5 -6 -6 -7 -7 -6 -5 -4 -4 -4 1 2 2 2 2 2 1 1 1 2 3 3 3 3 3 3 2 2 2 3 3
1 -1 2 1 -1 1 -6 -8 -7 -6 -6 -7 -6 -6 -5 -6 -7 -6 -5 -5 -4 -4 -4 3 2 2 2 2 2 1 1 1 2 2 3 3 3 3 3 2 2 1 2 2
-3 -1 2 2 -1 -4 -6 -8 -7 -7 -7 -7 -7 -7 -9 -7 -7 -7 -7 -6 -4 -4 1 3 2 2 2 2 1 1 1 1 1 2 2 2 2 2 2 2 1 1 2 1
-6 -5 -1 -1 -0 -3 -7 -6 -8 -7 -4 -8 -9 -9 -8 -7 -7 -8 -6 -6 -5 -4 2 3 2 2 2 1 1 1 1 0 1 1 1 1 1 2 2 2 1 0 1 0
-2 -3 -1 -2 -2 -6 -11 -11 -9 -4 -3 -6 -9 -9 -9 -7 -7 -6 -6 -7 -7 -4 1 2 2 2 2 1 1 1 0 0 -0 -0 -0 -0 0 1 1 1 0 0 0 -0
-7 -4 -4 -3 -3 -1 -10 -7 -7 -7 -8 -9 -9 -11 -12 -7 -8 -10 -8 -9 -6 -4 0 2 2 2 2 1 1 1 0 0 -0 -1 -1 -1 -0 -0 0 0 -0 -0 -0 -0
-9 -10 -10 -9 -8 -7 -6 -8 -9 -10 -11 -11 -12 -11 -7 -8 -11 -11 -10 -8 -5 -4 -0 2 2 2 2 1 1 1 0 -0 -0 -0 -1 -1 -1 -0 -0 0 -0 -1 -1 -1
-13 -13 -8 -10 -13 -13 -12 -12 -12 -13 -13 -13 -11 -13 -15 -15 -11 -11 -8 -6 -4 -4 -0 2 2 2 2 1 1 1 1 -0 -1 -0 -1 -1 -1 -1 -1 -1 -1 -2 -5 -8
-13 -16 -14 -12 -13 -13 -13 -15 -16 -15 -15 -18 -18 -17 -15 -11 -10 -11 -7 -5 -4 -4 -1 2 2 2 2 1 1 1 1 0 -0 -1 -1 -1 -1 -2 -3 -5 -6 -8 -11 -16
-14 -13 -12 -12 -17 -18 -18 -19 -20 -20 -19 -19 -18 -17 -15 -13 -12 -9 -7 -5 -4 -4 -2 2 2 2 2 2 1 1 0 0 -0 -0 -1 -1 -1 -2 -6 -10 -11 -10 -8 -9

GFSCGP_850_dewp_204.txt.gz
Dewpoint
-1 1 3 1 -2 -2 -7 -6 -8 -5 -3 -3 -3 -4 -6 -9 -8 -7 -8 -7 -6 -4 -2 -1 -1 -1 -3 -3 -1 -2 -4 -6 -7 -7 -7 -8 -8 -6 -1 2 -0 -3 0 6
-1 -1 -2 -2 -3 -5 -5 -5 -4 -4 -4 -3 -3 -3 -4 -8 -7 -7 -8 -8 -6 -3 -3 -2 -1 -1 -1 -1 -1 -2 -4 -6 -6 -5 -3 -3 -4 -4 -4 -3 1 4 1 5
1 -0 -2 -3 -2 -2 -4 -4 -5 -3 -2 -3 -2 -2 -6 -7 -7 -6 -7 -6 -6 -5 -4 -3 -3 -3 -3 -4 -3 -3 -3 -4 -6 -5 -1 1 1 0 0 -1 -2 2 5 2
-2 -2 -2 -2 -1 -2 1 -5 -3 -2 0 3 -3 -0 -5 -6 -7 -7 -6 -7 -6 -7 -7 -7 -6 -6 -6 -5 -5 -3 -4 -4 -2 0 3 4 4 4 3 3 5 5 4 4
1 0 0 0 -1 -3 1 -2 0 1 2 -0 -1 2 -4 -8 -7 -6 -7 -8 -8 -7 -6 -6 -5 -5 -5 -4 -4 -4 1 2 1 2 4 4 5 5 4 3 4 3 4 5
-1 -1 -0 -1 -2 -2 -1 -1 0 3 3 2 0 2 -3 -7 -8 -6 -7 -7 -7 -6 -6 -5 -5 -5 -4 -4 -4 1 3 3 3 3 4 4 4 4 3 3 3 3 4 4
-1 0 -1 -1 1 -0 -0 -0 4 5 3 4 -4 -2 -5 -8 -7 -7 -7 -7 -6 -6 -5 -5 -5 -5 -4 -2 -0 1 3 3 3 4 4 4 3 3 3 3 4 3 4 3
3 2 1 -1 0 1 1 -1 4 2 5 3 -3 0 -5 -7 -7 -7 -7 -7 -6 -5 -5 -5 -5 -4 0 2 2 2 2 3 3 4 4 4 4 4 3 3 3 3 4 4
0 1 0 -1 -1 -1 -1 0 -2 0 -4 1 -1 -4 -6 -6 -6 -7 -6 -6 -6 -5 -5 -5 -5 -0 2 2 2 1 2 2 3 3 4 4 4 5 5 4 4 4 4 4
-2 -1 -1 0 -1 -1 -1 -4 0 2 3 3 -0 -3 1 -4 -4 -6 -6 -5 -5 -5 -5 -5 -4 2 2 2 1 2 2 3 3 3 3 3 3 3 4 4 4 5 4 4
-1 -4 0 0 2 0 -0 -1 -2 1 3 2 2 -2 -6 -4 -4 -5 -6 -5 -5 -5 -5 -5 -4 1 2 1 1 2 3 3 2 2 2 2 2 2 4 3 2 3 3 4
-1 1 1 -0 -3 -4 -3 -3 -3 2 2 2 2 2 -7 -6 -6 -6 -5 -5 -6 -7 -5 -5 -3 1 2 2 2 3 3 2 2 1 1 2 1 3 4 3 4 3 4 4
0 0 2 -0 -1 -3 -2 -3 -2 -3 -2 1 2 -1 -7 -7 -6 -6 -6 -7 -8 -6 -5 -5 -3 1 2 2 3 3 3 2 1 2 3 3 3 4 3 3 4 4 4 4
0 -0 -0 1 -1 -2 -1 -3 -3 -2 1 0 -0 -1 -6 -7 -6 -6 -8 -7 -6 -5 -4 -4 -3 1 2 2 2 2 2 1 1 3 3 3 3 4 3 3 4 3 5 4
0 2 -0 -1 -2 -1 -1 -1 -2 -0 -1 1 -1 -2 -4 -5 -6 -8 -7 -6 -5 -4 -4 -4 -3 2 2 2 2 2 1 1 2 3 3 3 4 3 3 3 3 3 4 4
3 4 3 2 0 0 1 -1 -1 -1 -2 -2 -2 -2 -5 -7 -7 -7 -6 -5 -5 -4 -4 -4 -2 2 2 2 2 2 1 1 2 2 3 3 3 3 3 2 2 2 3 4
2 3 4 3 -1 -1 1 -1 -1 -1 -2 -2 -1 -4 -6 -6 -6 -6 -6 -6 -5 -4 -4 -3 2 2 2 2 2 1 1 1 1 2 2 3 3 3 3 2 2 2 2 3
1 1 2 3 0 3 -4 -8 -7 -5 -6 -6 -6 -7 -6 -6 -7 -6 -7 -7 -6 -6 -4 -1 2 2 2 2 1 1 0 1 1 1 2 2 2 2 2 2 1 1 1 1
-0 0 2 2 2 -1 -4 -6 -6 -6 -5 -7 -7 -8 -8 -7 -7 -6 -6 -6 -6 -7 -4 -1 2 2 2 1 1 1 -0 0 1 1 1 1 1 1 1 1 1 1 1 1
-5 -1 0 2 2 -1 -3 -7 -9 -8 -3 -8 -8 -8 -8 -8 -6 -7 -8 -6 -7 -8 -4 -3 2 2 2 1 1 1 -1 -0 0 0 0 1 1 1 1 0 0 0 0 0
-2 -3 -1 -1 0 -3 -9 -7 -9 -3 -3 -8 -10 -11 -11 -9 -7 -8 -11 -11 -11 -8 -4 -3 2 2 2 1 0 0 -0 -0 -0 -0 -0 0 0 1 0 -0 -0 -0 0 -0
-6 -2 -2 -3 -1 -1 -7 -7 -6 -7 -9 -10 -11 -11 -9 -7 -9 -12 -12 -13 -9 -7 -4 -3 2 2 2 1 0 0 -1 -0 -0 -1 -1 -1 -0 -0 -0 -0 -0 -0 -0 -0
-8 -10 -9 -8 -5 -9 -12 -8 -9 -11 -12 -13 -13 -11 -11 -15 -15 -13 -11 -12 -10 -5 -4 -4 1 2 2 1 1 0 -0 -0 -1 -1 -1 -1 -1 -1 -1 -0 -1 -1 -1 -4
-13 -15 -13 -12 -11 -11 -12 -12 -12 -13 -14 -14 -18 -19 -19 -18 -15 -11 -11 -13 -9 -6 -4 -4 0 2 2 1 1 1 -1 -1 -1 -1 -1 -1 -1 -1 -1 -1 -1 -1 -2 -2
-12 -12 -12 -12 -13 -14 -16 -15 -15 -15 -17 -19 -19 -19 -19 -17 -15 -13 -13 -13 -8 -6 -4 -4 -1 2 2 2 1 1 0 -0 -0 -1 -1 -1 -1 -1 -2 -2 -2 -3 -3 -5
-14 -13 -12 -12 -14 -15 -15 -16 -17 -17 -17 -17 -17 -17 -17 -17 -15 -15 -16 -10 -10 -8 -4 -4 -2 2 2 2 1 1 1 0 -0 -0 -1 -1 -1 -2 -5 -9 -10 -12 -12 -10

GFSCGP_850_dewp_207.txt.gz
Dewpoint
0 0 0 -1 -2 -3 -6 -7 -8 -2 -3 -5 -5 -4 -5 -7 -8 -8 -7 -6 -6 -4 -1 -1 -0 -2 -4 -4 -4 -3 -4 -4 -4 -4 -5 -7 -8 -8 -7 -5 -3 -2 2 3
-1 -2 -4 -2 -1 -3 -6 -6 -6 -4 -4 -6 -3 -3 -4 -6 -8 -7 -7 -6 -4 -3 -3 -3 -2 -2 -2 -2 -2 -5 -3 -2 -3 -4 -4 -2 -2 -3 -4 -5 -4 -3 -1 2
-0 -2 -3 -3 -3 -3 -4 -5 -5 -4 -2 -3 -3 -8 -6 -7 -6 -6 -6 -5 -4 -3 -4 -4 -4 -5 -5 -6 -6 -5 -5 -4 -4 -2 1 1 2 2 1 -0 -0 -0 -0 1
-2 -2 -2 -2 -2 -1 -2 -4 -2 -1 -1 -2 -5 -7 -6 -6 -6 -6 -6 -6 -7 -7 -7 -7 -6 -6 -5 -5 -5 -4 -5 -5 -1 2 2 2 3 4 3 3 2 1 3 4
-2 0 -0 -0 -1 -2 1 1 1 1 1 -5 -5 -2 -7 -6 -6 -5 -6 -7 -7 -6 -6 -5 -5 -5 -5 -5 -5 -3 -2 -2 1 3 3 3 4 4 4 4 4 2 2 3
-1 -1 0 -1 -1 -2 -1 -1 1 2 1 -5 -10 -5 -3 -6 -6 -5 -7 -6 -6 -6 -6 -5 -5 -6 -6 -5 -1 0 1 1 2 3 3 3 3 3 3 3 3 3 3 3
-1 -0 -1 -1 1 -1 -1 -1 1 3 -1 -4 -3 -2 -4 -6 -7 -6 -6 -6 -6 -6 -5 -5 -6 -6 -4 0 1 1 1 1 2 2 2 3 3 4 4 3 3 2 3 2
-0 -2 1 -1 0 0 1 -0 2 -7 4 2 -4 -3 -7 -6 -7 -6 -6 -6 -6 -6 -5 -5 -5 -4 0 1 1 0 1 2 2 2 3 3 4 4 4 4 5 4 3 3
0 0 -0 -1 -0 -1 1 1 -2 -1 -2 -2 -2 -3 -6 -6 -5 -6 -6 -6 -5 -5 -5 -5 -5 -3 1 1 1 0 1 1 2 2 2 2 3 3 4 4 5 5 4 4
-2 -3 -0 0 -1 -2 -1 -3 -2 -0 0 2 -0 -3 -0 -3 -4 -5 -5 -5 -5 -5 -5 -5 -5 -2 -2 0 1 0 1 2 2 2 1 2 2 2 2 2 3 4 4 3
-1 -3 -0 1 2 1 -0 -1 -1 -1 0 -1 0 -3 -5 -5 -4 -4 -5 -5 -6 -7 -5 -5 -5 -4 -3 1 1 1 3 3 2 1 1 0 1 1 1 1 4 4 3 3
-1 0 1 1 -3 -4 -3 -3 -3 -1 -2 -0 -1 -2 -6 -5 -5 -5 -5 -7 -7 -6 -6 -5 -4 -4 -3 1 1 0 2 2 1 1 1 2 3 2 2 3 3 3 3 4
1 0 1 -1 -2 -3 -3 -3 -3 -2 -1 1 1 -0 -7 -7 -5 -5 -7 -7 -6 -7 -6 -4 -4 -4 0 2 2 2 2 1 0 2 2 2 2 3 3 3 2 3 4 4
1 1 -0 0 -1 -2 -1 -3 -3 -2 0 -1 0 -1 -5 -7 -6 -7 -6 -6 -6 -6 -5 -4 -4 -4 2 2 2 2 1 -0 1 2 3 3 3 3 3 3 2 3 3 3
1 2 0 -0 -1 -1 -1 -1 -2 -1 -1 0 -2 -2 -4 -5 -6 -6 -5 -5 -7 -8 -6 -5 -4 -1 2 2 2 0 1 0 1 2 2 3 3 3 3 3 2 2 3 4
1 2 2 2 1 0 1 0 -1 -1 -1 -1 -1 -1 -5 -6 -7 -6 -5 -6 -7 -7 -6 -5 -3 2 2 2 1 1 0 0 1 1 2 2 3 2 3 2 2 2 3 3
1 1 2 2 -1 -1 1 0 -1 -1 -2 -2 -1 -3 -5 -6 -5 -6 -6 -8 -7 -7 -7 -5 -2 -0 2 1 1 1 -0 -1 1 1 1 2 2 3 2 2 2 2 2 2
-0 0 0 1 1 2 -4 -6 -4 -3 -3 -4 -6 -6 -5 -5 -6 -6 -7 -6 -6 -8 -8 -5 -3 0 2 1 1 1 -1 -1 0 1 1 2 2 2 2 2 2 1 1 1
-2 -0 1 2 2 -1 -4 -6 -6 -5 -5 -7 -7 -7 -7 -6 -6 -6 -9 -8 -10 -12 -7 -4 -3 0 2 1 1 -0 -1 -1 0 1 1 1 1 1 1 2 1 1 0 0
-2 -0 2 0 2 1 -5 -7 -8 -8 -4 -8 -10 -10 -9 -8 -5 -6 -10 -13 -13 -10 -6 -4 -3 0 2 2 1 -0 -1 -1 -0 -0 -0 -0 0 0 1 1 1 0 0 0
-2 -3 -0 -1 0 -1 -6 -7 -9 -5 -5 -9 -10 -11 -11 -8 -7 -10 -14 -15 -13 -10 -4 -3 -3 -0 2 2 1 -0 -1 -0 -0 -1 -1 -0 -0 -0 -0 0 0 0 0 0
-3 -2 -2 -2 -1 -2 -9 -7 -6 -7 -11 -11 -12 -10 -8 -8 -12 -15 -17 -16 -14 -13 -5 -4 -3 -0 2 1 1 0 -1 -0 -1 -1 -1 -0 -0 -0 -0 -0 -0 -0 -0 -0
-9 -11 -10 -5 -3 -11 -12 -9 -11 -12 -12 -13 -13 -10 -15 -17 -17 -18 -18 -15 -17 -15 -7 -4 -3 -2 2 1 1 0 -0 -1 -1 -1 -1 -1 -1 -1 -1 -0 -1 -1 -1 -2
-12 -13 -12 -11 -13 -14 -14 -15 -15 -15 -14 -14 -16 -19 -19 -19 -17 -16 -14 -16 -20 -18 -9 -5 -4 -3 2 2 1 1 -0 -1 -1 -1 -1 -1 -1 -1 -1 -1 -1 -2 -6 -6
-12 -12 -11 -13 -15 -17 -19 -19 -16 -16 -16 -16 -17 -17 -17 -17 -17 -17 -17 -17 -21 -18 -11 -7 -4 -3 1 2 1 1 0 -1 -1 -1 -1 -1 -1 -1 -1 -1 -2 -3 -3 -6
-12 -13 -12 -13 -16 -16 -16 -16 -15 -15 -15 -15 -15 -15 -15 -15 -16 -16 -16 -17 -17 -12 -11 -10 -4 -4 -0 2 1 1 0 -0 -0 -1 -1 -1 -1 -1 -2 -3 -3 -4 -6 -12